TimeEST,TemperatureF,Dew PointF,Humidity,Sea Level PressureIn,VisibilityMPH,Wind Direction,Wind SpeedMPH,Gust SpeedMPH,PrecipitationIn,Events,Conditions,WindDirDegrees,DateUTC
12:53 AM,27.0,19.9,75,29.96,10.0,WNW,10.4,-,N/A,,Overcast,300,2013-02-24 05:53:00
1:53 AM,27.0,19.9,75,29.97,10.0,West,9.2,-,N/A,,Overcast,280,2013-02-24 06:53:00
2:53 AM,26.1,19.0,75,29.99,10.0,West,12.7,-,N/A,,Overcast,280,2013-02-24 07:53:00
3:53 AM,26.1,19.0,75,29.99,10.0,WNW,11.5,-,N/A,,Overcast,290,2013-02-24 08:53:00
4:53 AM,26.1,19.0,75,30.00,10.0,West,10.4,-,N/A,,Overcast,280,2013-02-24 09:53:00
5:53 AM,26.1,18.0,71,30.02,10.0,WNW,11.5,-,N/A,,Overcast,290,2013-02-24 10:53:00
6:53 AM,26.1,18.0,71,30.04,10.0,WNW,8.1,-,N/A,,Overcast,290,2013-02-24 11:53:00
7:53 AM,27.0,19.0,72,30.06,7.0,WNW,6.9,-,N/A,,Overcast,300,2013-02-24 12:53:00
8:53 AM,27.0,19.0,72,30.07,7.0,WNW,11.5,-,N/A,,Overcast,300,2013-02-24 13:53:00
9:09 AM,28.4,19.4,69,30.03,10.0,West,10.4,-,N/A,,Overcast,270,2013-02-24 14:09:00
9:53 AM,28.0,19.0,69,30.08,10.0,West,13.8,-,N/A,,Overcast,260,2013-02-24 14:53:00
10:53 AM,30.0,21.0,69,30.09,10.0,West,10.4,-,N/A,,Overcast,260,2013-02-24 15:53:00
11:33 AM,30.2,21.2,69,30.07,10.0,West,12.7,-,N/A,,Overcast,270,2013-02-24 16:33:00
11:53 AM,33.1,21.9,64,30.10,10.0,West,10.4,-,N/A,,Scattered Clouds,270,2013-02-24 16:53:00
12:53 PM,34.0,21.9,61,30.10,10.0,West,13.8,18.4,N/A,,Scattered Clouds,280,2013-02-24 17:53:00
1:53 PM,34.0,21.0,59,30.10,10.0,WNW,11.5,18.4,N/A,,Mostly Cloudy,290,2013-02-24 18:53:00
2:53 PM,37.0,21.0,52,30.10,10.0,NNW,8.1,-,N/A,,Mostly Cloudy,340,2013-02-24 19:53:00
3:53 PM,37.0,21.0,52,30.10,10.0,WNW,10.4,-,N/A,,Mostly Cloudy,290,2013-02-24 20:53:00
4:53 PM,34.0,21.0,59,30.12,10.0,NW,8.1,-,N/A,,Mostly Cloudy,310,2013-02-24 21:53:00
5:53 PM,34.0,21.9,61,30.14,10.0,NW,6.9,-,N/A,,Mostly Cloudy,310,2013-02-24 22:53:00
6:53 PM,33.1,21.9,64,30.15,10.0,NNW,3.5,-,N/A,,Overcast,340,2013-02-24 23:53:00
7:53 PM,30.9,21.9,69,30.17,10.0,Calm,Calm,-,N/A,,Partly Cloudy,0,2013-02-25 00:53:00
8:53 PM,28.9,21.0,72,30.17,10.0,Calm,Calm,-,N/A,,Clear,0,2013-02-25 01:53:00
9:53 PM,27.0,21.0,78,30.17,9.0,Calm,Calm,-,N/A,,Clear,0,2013-02-25 02:53:00
10:53 PM,28.0,21.9,78,30.17,10.0,Calm,Calm,-,N/A,,Overcast,0,2013-02-25 03:53:00
11:53 PM,28.9,23.0,78,30.17,9.0,Calm,Calm,-,N/A,,Overcast,0,2013-02-25 04:53:00